Regional Weather Roundup
Issued by NWS Sterling, VA

Home | Current Version | Previous Version | Text Only | Print | Product List | Glossary On
Versions: 1 2 3 4 5 6 7 8 9 10 11 12 13 14 15 16 17 18 19 20 21 22 23 24 25 26 27 28 29 30 31 32 33 34 35 36 37 38 39 40 41 42 43 44 45 46 47 48 49 50
000
ASUS41 KLWX 190410
RWRLWX

REGIONAL WEATHER ROUNDUP
NATIONAL WEATHER SERVICE BALTIMORE MD/WASHINGTON DC
1200 AM EDT FRI SEP 19 2014

Note: "FAIR" indicates few or no clouds below 12,000 feet
with no significant weather and/or obstructions to visibility.
 TC=TEMPERATURE CELSIUS

 * =Non NWS site. Station does not report precipitation (e.g. rain,
    snow, etc.), thunder, or fog.

DCZ001-MDZ009-015-VAZ040>042-051-053>054-190500-
WASHINGTON METRO

CITY           SKY/WX    TMP DP  RH WIND       PRES   REMARKS
WASHINGTON NAT CLEAR     67  60  78 NE5       30.12R
DULLES         PTCLDY    61  56  83 N5        30.12R
ANDREWS AFB    CLEAR     58  58  99 CALM      30.11R
QUANTICO       CLEAR     63  60  90 NW8       30.11R
COLLEGE PARK*  CLEAR     59  59 100 CALM      30.12R
LEESBURG*      PTCLDY    59  54  82 NW5       30.13S
MANASSAS*      CLEAR     61  59  94 CALM      30.12R
GAITHERSBURG*  MOCLDY    57  55  94 CALM      30.16R

$$

MDZ006>007-011-014-190500-
BALTIMORE METRO

CITY           SKY/WX    TMP DP  RH WIND       PRES   REMARKS
BWI AIRPORT    PTCLDY    58  56  93 CALM      30.11R
MD SCIENCE CTR   N/A     65  59  81 MISG      30.12R
MARTIN STATE   CLEAR     59  59 100 CALM      30.12S FOG
ANNAPOLIS      CLEAR     65  63  93 N3        30.10S
FORT MEADE*    CLEAR     54  52  94 CALM      30.14R

$$

MDZ012-015-019>023-190500-
MARYLAND EASTERN SHORE

CITY           SKY/WX    TMP DP  RH WIND       PRES   REMARKS
OCEAN CITY     CLOUDY    61  56  83 CALM      30.10R
SALISBURY      CLOUDY    65  60  84 CALM      30.10S
BAY BRIDGE AP*   N/A     61  59  94 CALM      30.10S
CAMBRIDGE*     PTCLDY    63  59  88 CALM      30.10R
EASTON*        PTCLDY    63  60  91 CALM      30.14R

$$

MDZ017>025-190500-
SOUTHERN MARYLAND

CITY           SKY/WX    TMP DP  RH WIND       PRES   REMARKS
PATUXENT RIVER PTCLDY    60  56  86 CALM      30.09S
ST INIGOES     CLEAR     59  54  83 CALM      30.09S
LEONARDTOWN*   CLEAR     59  55  88 CALM      30.11S

$$

MDZ003>005-190500-
NORTH CENTRAL MARYLAND

CITY           SKY/WX    TMP DP  RH WIND       PRES   REMARKS
FREDERICK*     CLEAR     55  54  94 CALM      30.15S
HAGERSTOWN APT CLEAR     57  46  66 NW6       30.13R
WESTMINSTER*   CLEAR     55  48  76 CALM      30.13R

$$

MDZ501>502-190500-
WESTERN MARYLAND

CITY           SKY/WX    TMP DP  RH WIND       PRES   REMARKS
OAKLAND*       MOCLDY    52  43  71 E3        30.18S
CUMBERLAND*    PTCLDY    55  45  67 CALM      30.19R

$$

VAZ025>031-190500-
SHENANDOAH VALLEY

CITY           SKY/WX    TMP DP  RH WIND       PRES   REMARKS
WINCHESTER*    CLEAR     54  46  76 CALM      30.13S
STAUNTON*      MOCLDY    64  56  75 N3        30.14R

$$

WVZ021-048>050-054>055-190500-
EASTERN WEST VIRGINIA PANHANDLE

CITY           SKY/WX    TMP DP  RH WIND       PRES   REMARKS
MARTINSBURG    CLEAR     55  48  77 CALM      30.14R
PETERSBURG*    MOCLDY    53  51  94 CALM      30.17R

$$

VAZ036>039-050-190500-
CENTRAL FOOTHILLS

CITY           SKY/WX    TMP DP  RH WIND       PRES   REMARKS
CHARLOTTESVILL CLOUDY    63  60  90 CALM      30.11R
ORANGE*        MOCLDY    61  59  94 CALM      30.12R

$$

VAZ055>057-190500-
NORTH AND CENTRAL PIEDMONT

CITY           SKY/WX    TMP DP  RH WIND       PRES   REMARKS
FREDERICKSBRG* CLEAR     61  61 100 CALM      30.10R FOG
STAFFORD*      CLEAR     57  57 100 CALM      30.15R FOG

$$

NCZ024-NYZ072-PAZ021-071-VAZ022-071-190500-
OTHER REGIONAL OBSERVATIONS

CITY           SKY/WX    TMP DP  RH WIND       PRES   REMARKS
NEW YORK CITY  CLEAR     64  48  56 NE8       30.14R
PHILADELPHIA   PTCLDY    63  55  75 W5        30.11R
PITTSBURGH     CLEAR     56  50  80 NE6       30.17R
ROANOKE        PTCLDY    67  61  81 CALM      30.11R
RICHMOND       PTCLDY    64  58  80 CALM      30.09R
RALEIGH        MOCLDY    70  61  73 SE6       30.08R

$$

ANZ530>537-190500-
MARINE OBSERVATIONS

STATION/POSITION TIME  TEMP    WIND        PRES
                       AIR SEA DIR/SP/G
                 (UTC) (F)     (DEG/KT/KT) (MB)
THOMAS PT LIGHT  0400   69 74  180/  4/  5 1020.3R
BALT KEY BRIDGE  0400   66                 1019.4R
COVE POINT       0400   69                 1019.0R
LEWISETTA        0400   69 74              1018.7R
SOLOMONS ISLAND  0400      76                N/A
PINEY POINT      0300           50/  4/  5   N/A

$$




USA.gov is the U.S. government's official web portal to all federal, state and local government web resources and services.